H1 CPF 1 NER 2021 1 3 9 5031 glonass135 H2 1600801 9135 41330 2021 1 3 0 0 0 2021 1 6 23 45 0 900 1 1 0 0 0 H9 10 0 59217 0.00000 0 -6535079.750 23553977.111 -7206530.511 10 0 59217 900.00000 0 -6244164.601 22499320.871 -10206874.613 10 0 59217 1800.00000 0 -6021634.970 21068792.406 -13008357.773 10 0 59217 2700.00000 0 -5918044.786 19296459.223 -15556401.914 10 0 59217 3600.00000 0 -5976918.940 17227792.534 -17801386.517 10 0 59217 4500.00000 0 -6232707.995 14917908.295 -19699621.970 10 0 59217 5400.00000 0 -6709138.875 12429417.524 -21214203.774 10 0 59217 6300.00000 0 -7418032.282 9829976.407 -22315730.775 10 0 59217 7200.00000 0 -8358637.269 7189639.386 -22982873.552 10 0 59217 8100.00000 0 -9517511.220 4578126.276 -23202782.424 10 0 59217 9000.00000 0 -10868950.288 2062117.647 -22971327.852 10 0 59217 9900.00000 0 -12375951.887 -297308.874 -22293169.416 10 0 59217 10800.00000 0 -13991668.442 -2446995.228 -21181652.952 10 0 59217 11700.00000 0 -15661291.008 -4343677.085 -19658538.723 10 0 59217 12600.00000 0 -17324283.325 -5955534.785 -17753566.757 10 0 59217 13500.00000 0 -18916872.412 -7263258.353 -15503868.472 10 0 59217 14400.00000 0 -20374691.173 -8260584.409 -12953236.580 10 0 59217 15300.00000 0 -21635462.276 -8954284.854 -10151267.923 10 0 59217 16200.00000 0 -22641611.041 -9363610.230 -7152396.233 10 0 59217 17100.00000 0 -23342698.217 -9519213.365 -4014833.727 10 0 59217 18000.00000 0 -23697571.132 -9461600.422 -799442.298 10 0 59217 18900.00000 0 -23676143.687 -9239176.103 2431443.846 10 0 59217 19800.00000 0 -23260731.158 -8905966.449 5615221.446 10 0 59217 20700.00000 0 -22446884.474 -8519115.810 8690224.220 10 0 59217 21600.00000 0 -21243689.409 -8136263.740 11596908.796 10 0 59217 22500.00000 0 -19673518.352 -7812912.235 14278998.241 10 0 59217 23400.00000 0 -17771244.927 -7599893.868 16684561.739 10 0 59217 24300.00000 0 -15582953.768 -7541046.939 18767010.494 10 0 59217 25200.00000 0 -13164198.440 -7671195.049 20485991.546 10 0 59217 26100.00000 0 -10577878.911 -8014515.733 21808163.114 10 0 59217 27000.00000 0 -7891825.486 -8583366.766 22707837.282 10 0 59217 27900.00000 0 -5176187.928 -9377619.853 23167478.203 10 0 59217 28800.00000 0 -2500736.636 -10384530.559 23178046.392 10 0 59217 29700.00000 0 67813.727 -11579151.294 22739182.378 10 0 59217 30600.00000 0 2468348.488 -12925271.790 21859225.576 10 0 59217 31500.00000 0 4647660.468 -14376849.555 20555067.151 10 0 59217 32400.00000 0 6562425.669 -15879872.413 18851838.447 10 0 59217 33300.00000 0 8180765.308 -17374576.871 16782439.576 10 0 59217 34200.00000 0 9483329.155 -18797930.767 14386915.806 10 0 59217 35100.00000 0 10463854.766 -20086276.976 11711692.404 10 0 59217 36000.00000 0 11129178.997 -21178027.542 8808681.571 10 0 59217 36900.00000 0 11498700.961 -22016294.646 5734278.045 10 0 59217 37800.00000 0 11603318.961 -22551346.873 2548262.497 10 0 59217 38700.00000 0 11483886.317 -22742785.999 -687365.878 10 0 59217 39600.00000 0 11189251.691 -22561350.854 -3909604.165 10 0 59217 40500.00000 0 10773967.615 -21990270.486 -7055683.343 10 0 59217 41400.00000 0 10295765.309 -21026107.776 -10064303.366 10 0 59217 42300.00000 0 9812904.116 -19679056.495 -12876840.132 10 0 59217 43200.00000 0 9381509.391 -17972678.103 -15438499.502 10 0 59217 44100.00000 0 9053013.124 -15943088.629 -17699394.660 10 0 59217 45000.00000 0 8871807.063 -13637629.508 -19615524.811 10 0 59217 45900.00000 0 8873208.809 -11113078.219 -21149635.602 10 0 59217 46800.00000 0 9081827.691 -8433473.948 -22271944.303 10 0 59217 47700.00000 0 9510399.888 -5667649.780 -22960715.766 10 0 59217 48600.00000 0 10159142.054 -2886574.873 -23202678.445 10 0 59217 49500.00000 0 11015650.472 -160617.722 -22993273.102 10 0 59217 50400.00000 0 12055349.535 2443155.383 -22336730.216 10 0 59217 51300.00000 0 13242470.052 4863534.665 -21245975.504 10 0 59217 52200.00000 0 14531515.639 7047468.447 -19742366.272 10 0 59217 53100.00000 0 15869154.873 8952017.380 -17855264.549 10 0 59217 54000.00000 0 17196459.233 10545881.642 -15621455.999 10 0 59217 54900.00000 0 18451392.424 11810439.443 -13084426.447 10 0 59217 55800.00000 0 19571446.331 12740255.667 -10293510.557 10 0 59217 56700.00000 0 20496312.876 13343041.766 -7302929.539 10 0 59217 57600.00000 0 21170479.762 13639070.874 -4170736.727 10 0 59217 58500.00000 0 21545641.362 13660074.768 -957691.716 10 0 59217 59400.00000 0 21582823.996 13447670.803 2273915.167 10 0 59217 60300.00000 0 21254136.807 13051386.364 5461465.398 10 0 59217 61200.00000 0 20544075.221 12526364.886 8543218.695 10 0 59217 62100.00000 0 19450322.636 11930850.510 11459500.476 10 0 59217 63000.00000 0 17984016.836 11323557.313 14153847.988 10 0 59217 63900.00000 0 16169469.820 10761033.584 16574093.597 10 0 59217 64800.00000 0 14043352.225 10295131.513 18673365.238 10 0 59217 65700.00000 0 11653375.445 9970688.114 20410985.638 10 0 59217 66600.00000 0 9056525.200 9823514.254 21753253.775 10 0 59217 67500.00000 0 6316918.500 9878775.900 22674094.331 10 0 59217 68400.00000 0 3503371.306 10149835.481 23155563.169 10 0 59217 69300.00000 0 686776.134 10637602.331 23188199.307 10 0 59217 70200.00000 0 -2062603.405 11330420.248 22771216.503 10 0 59217 71100.00000 0 -4677810.533 12204498.130 21912530.246 10 0 59217 72000.00000 0 -7097735.822 13224867.131 20628618.724 10 0 59217 72900.00000 0 -9269415.822 14346825.919 18944219.256 10 0 59217 73800.00000 0 -11149994.833 15517815.104 16891864.596 10 0 59217 74700.00000 0 -12708268.251 16679643.603 14511266.610 10 0 59217 75600.00000 0 -13925743.055 17770974.511 11848557.835 10 0 59217 76500.00000 0 -14797170.769 18729966.492 8955404.357 10 0 59217 77400.00000 0 -15330530.163 19496959.467 5888006.474 10 0 59217 78300.00000 0 -15546460.138 20017090.785 2706006.125 10 0 59217 79200.00000 0 -15477166.555 20242730.379 -528677.614 10 0 59217 80100.00000 0 -15164849.304 20135630.533 -3753061.633 10 0 59217 81000.00000 0 -14659716.572 19668697.716 -6904335.933 10 0 59217 81900.00000 0 -14017671.231 18827309.735 -9921099.497 10 0 59217 82800.00000 0 -13297768.364 17610120.898 -12744569.260 10 0 59217 83700.00000 0 -12559553.010 16029319.727 -15319737.319 10 0 59217 84600.00000 0 -11860392.218 14110327.163 -17596452.592 10 0 59217 85500.00000 0 -11252915.683 11890947.300 -19530404.801 10 0 59218 0.00000 0 -10782674.281 9420005.968 -21083991.073 10 0 59218 900.00000 0 -10486116.590 6755533.912 -22227048.170 10 0 59218 1800.00000 0 -10388968.202 3962571.560 -22937435.862 10 0 59218 2700.00000 0 -10505084.082 1110686.493 -23201461.016 10 0 59218 3600.00000 0 -10835819.916 -1728692.017 -23014134.610 10 0 59218 4500.00000 0 -11369949.723 -4485010.367 -22379257.519 10 0 59218 5400.00000 0 -12084131.648 -7091286.143 -21309334.418 10 0 59218 6300.00000 0 -12943901.577 -9486650.230 -19825318.310 10 0 59218 7200.00000 0 -13905151.730 -11618630.613 -17956191.482 10 0 59218 8100.00000 0 -14916031.177 -13445084.159 -15738391.751 10 0 59218 9000.00000 0 -15919187.611 -14935697.684 -13215095.677 10 0 59218 9900.00000 0 -16854255.562 -16072997.546 -10435373.172 10 0 59218 10800.00000 0 -17660486.063 -16852827.856 -7453230.236 10 0 59218 11700.00000 0 -18279407.101 -17284279.491 -4326558.586 10 0 59218 12600.00000 0 -18657402.994 -17389074.933 -1116012.777 10 0 59218 13500.00000 0 -18748104.501 -17200436.701 2116163.457 10 0 59218 14400.00000 0 -18514489.470 -16761488.391 5307338.998 10 0 59218 15300.00000 0 -17930606.096 -16123256.712 8395702.173 10 0 59218 16200.00000 0 -16982846.685 -15342359.184 11321449.720 10 0 59218 17100.00000 0 -15670718.527 -14478475.002 14027935.468 10 0 59218 18000.00000 0 -14007079.410 -13591705.251 16462757.203 10 0 59218 18900.00000 0 -12017827.412 -12739932.943 18578761.600 10 0 59218 19800.00000 0 -9741056.956 -11976293.080 20334948.778 10 0 59218 20700.00000 0 -7225715.164 -11346858.233 21697259.846 10 0 59218 21600.00000 0 -4529812.803 -10888636.030 22639233.079 10 0 59218 22500.00000 0 -1718262.346 -10627962.095 23142516.666 10 0 59218 23400.00000 0 1139568.931 -10579355.644 23197228.342 10 0 59218 24300.00000 0 3972491.317 -10744885.967 22802154.963 10 0 59218 25200.00000 0 6710203.122 -11114077.014 21964787.600 10 0 59218 26100.00000 0 9285968.265 -11664355.124 20701190.653 10 0 59218 27000.00000 0 11639151.063 -12362022.415 19035706.287 10 0 59218 27900.00000 0 13717503.675 -13163716.409 17000498.462 10 0 59218 28800.00000 0 15479111.250 -14018295.910 14634943.887 10 0 59218 29700.00000 0 16893913.670 -14869074.947 11984880.274 10 0 59218 30600.00000 0 17944739.978 -15656311.421 9101725.167 10 0 59218 31500.00000 0 18627811.629 -16319845.745 6041481.690 10 0 59218 32400.00000 0 18952692.981 -16801777.763 2863650.063 10 0 59218 33300.00000 0 18941690.730 -17049067.938 -369933.916 10 0 59218 34200.00000 0 18628727.481 -17015951.489 -3596310.161 10 0 59218 35100.00000 0 18057737.222 -16666061.659 -6752630.889 10 0 59218 36000.00000 0 17280651.085 -15974170.431 -9777397.153 10 0 59218 36900.00000 0 16355059.476 -14927471.209 -12611669.766 10 0 59218 37800.00000 0 15341650.644 -13526347.559 -15200229.638 10 0 59218 38700.00000 0 14301535.330 -11784594.079 -17492663.688 10 0 59218 39600.00000 0 13293571.888 -9729079.020 -19444354.114 10 0 59218 40500.00000 0 12371806.051 -7398862.136 -21017351.172 10 0 59218 41400.00000 0 11583134.227 -4843804.353 -22181112.231 10 0 59218 42300.00000 0 10965289.373 -2122727.536 -22913092.811 10 0 59218 43200.00000 0 10545234.320 698798.675 -23199178.596 10 0 59218 44100.00000 0 10338029.776 3550950.383 -23033950.713 10 0 59218 45000.00000 0 10346223.863 6362319.222 -22420779.963 10 0 59218 45900.00000 0 10559787.743 9062647.315 -21371749.112 10 0 59218 46800.00000 0 10956598.760 11585513.952 -19907405.617 10 0 59218 47700.00000 0 11503449.422 13870862.770 -18056350.439 10 0 59218 48600.00000 0 12157538.485 15867265.303 -15854671.641 10 0 59218 49500.00000 0 12868380.242 17533828.046 -13345234.314 10 0 59218 50400.00000 0 13580050.735 18841665.058 -10576841.120 10 0 59218 51300.00000 0 14233675.622 19774876.631 -7603280.102 10 0 59218 52200.00000 0 14770054.543 20330995.092 -4482278.406 10 0 59218 53100.00000 0 15132311.276 20520881.022 -1274382.461 10 0 59218 54000.00000 0 15268458.145 20368076.187 1958213.724 10 0 59218 54900.00000 0 15133766.875 19907641.873 5152869.511 10 0 59218 55800.00000 0 14692846.387 19184532.683 8247704.779 10 0 59218 56700.00000 0 13921340.391 18251574.920 11182790.308 10 0 59218 57600.00000 0 12807173.502 17167134.882 13901298.973 10 0 59218 58500.00000 0 11351293.482 15992574.959 16350596.154 10 0 59218 59400.00000 0 9567878.030 14789603.914 18483249.147 10 0 59218 60300.00000 0 7483996.601 13617631.820 20257937.062 10 0 59218 61200.00000 0 5138740.182 12531239.711 21640244.448 10 0 59218 62100.00000 0 2581853.715 11577869.076 22603324.192 10 0 59218 63000.00000 0 -128073.876 10795827.149 23128417.503 10 0 59218 63900.00000 0 -2925788.760 10212690.996 23205221.183 10 0 59218 64800.00000 0 -5741832.108 9844176.899 22832095.118 10 0 59218 65700.00000 0 -8505180.748 9693522.575 22016105.463 10 0 59218 66600.00000 0 -11145960.692 9751408.581 20772901.840 10 0 59218 67500.00000 0 -13598122.343 9996423.061 19126429.782 10 0 59218 68400.00000 0 -15801967.193 10396051.363 17108482.489 10 0 59218 69300.00000 0 -17706421.304 10908150.074 14758099.131 10 0 59218 70200.00000 0 -19270960.867 11482844.473 12120819.864 10 0 59218 71100.00000 0 -20467109.118 12064770.197 9247810.723 10 0 59218 72000.00000 0 -21279441.289 12595564.904 6194874.556 10 0 59218 72900.00000 0 -21706054.782 13016504.519 3021366.714 10 0 59218 73800.00000 0 -21758484.172 13271171.892 -210963.401 10 0 59218 74700.00000 0 -21461064.131 13308043.787 -3439181.771 10 0 59218 75600.00000 0 -20849767.022 13082885.071 -6600405.738 10 0 59218 76500.00000 0 -19970564.468 12560846.896 -9633041.207 10 0 59218 77400.00000 0 -18877382.713 11718178.160 -12477995.454 10 0 59218 78300.00000 0 -17629739.119 10543475.980 -15079840.564 10 0 59218 79200.00000 0 -16290160.775 9038420.646 -17387903.531 10 0 59218 80100.00000 0 -14921495.455 7217962.735 -19357260.759 10 0 59218 81000.00000 0 -13584229.542 5109953.467 -20949616.959 10 0 59218 81900.00000 0 -12333926.838 2754233.151 -22134051.103 10 0 59218 82800.00000 0 -11218896.705 201215.663 -22887614.974 10 0 59218 83700.00000 0 -10278189.747 -2489971.873 -23195773.164 10 0 59218 84600.00000 0 -9540004.888 -5253716.481 -23052676.638 10 0 59218 85500.00000 0 -9020573.993 -8020420.671 -22461265.400 10 0 59219 0.00000 0 -8723569.593 -10719173.487 -21433199.210 10 0 59219 900.00000 0 -8640059.314 -13280480.270 -19988618.416 10 0 59219 1800.00000 0 -8749006.598 -15638937.889 -18155740.848 10 0 59219 2700.00000 0 -9018296.137 -17735744.313 -15970302.668 10 0 59219 3600.00000 0 -9406238.044 -19520939.953 -13474855.139 10 0 59219 4500.00000 0 -9863486.985 -20955287.676 -10717931.172 10 0 59219 5400.00000 0 -10335293.927 -22011715.149 -7753098.277 10 0 59219 6300.00000 0 -10763994.995 -22676260.792 -4637916.452 10 0 59219 7200.00000 0 -11091631.993 -22948485.566 -1432821.447 10 0 59219 8100.00000 0 -11262593.965 -22841335.068 1800044.938 10 0 59219 9000.00000 0 -11226168.430 -22380459.300 4998034.984 10 0 59219 9900.00000 0 -10938894.985 -21603019.883 8099202.484 10 0 59219 10800.00000 0 -10366622.365 -20556035.708 11043494.558 10 0 59219 11700.00000 0 -9486182.518 -19294336.931 13773905.337 10 0 59219 12600.00000 0 -8286611.339 -17878213.224 16237569.871 10 0 59219 13500.00000 0 -6769864.495 -16370854.572 18386777.985 10 0 59219 14400.00000 0 -4950997.621 -14835691.152 20179889.463 10 0 59219 15300.00000 0 -2857802.313 -13333742.805 21582133.707 10 0 59219 16200.00000 0 -529911.580 -11921087.936 22566279.323 10 0 59219 17100.00000 0 1982589.847 -10646556.655 23113161.322 10 0 59219 18000.00000 0 4620994.525 -9549743.711 23212056.033 10 0 59219 18900.00000 0 7320166.863 -8659423.619 22860896.510 10 0 59219 19800.00000 0 10011014.276 -7992433.877 22066323.804 10 0 59219 20700.00000 0 12623134.191 -7553073.095 20843572.278 10 0 59219 21600.00000 0 15087528.644 -7333039.529 19216190.033 10 0 59219 22500.00000 0 17339274.818 -7311913.280 17215598.403 10 0 59219 23400.00000 0 19320040.972 -7458162.716 14880497.577 10 0 59219 24300.00000 0 20980343.097 -7730633.589 12256128.349 10 0 59219 25200.00000 0 22281447.755 -8080458.807 9393403.072 10 0 59219 26100.00000 0 23196840.787 -8453308.675 6347921.769 10 0 59219 27000.00000 0 23713199.459 -8791886.483 3178892.042 10 0 59219 27900.00000 0 23830826.329 -9038563.384 -52026.250 10 0 59219 28800.00000 0 23563525.768 -9138040.021 -3281928.465 10 0 59219 29700.00000 0 22937927.829 -9039920.722 -6447900.426 10 0 59219 30600.00000 0 21992287.837 -8701089.465 -9488256.154 10 0 59219 31500.00000 0 20774812.584 -8087785.079 -12343752.464 10 0 59219 32400.00000 0 19341584.404 -7177285.899 -14958755.408 10 0 59219 33300.00000 0 17754171.633 -5959130.805 -17282334.542 10 0 59219 34200.00000 0 16077027.302 -4435823.574 -19269262.610 10 0 59219 35100.00000 0 14374786.789 -2622989.588 -20880900.570 10 0 59219 36000.00000 0 12709579.098 -548977.378 -22085950.422 10 0 59219 36900.00000 0 11138465.486 1746078.716 -22861061.266 10 0 59219 37800.00000 0 9711113.278 4211695.808 -23191277.272 10 0 59219 38700.00000 0 8467802.219 6788919.548 -23070319.512 10 0 59219 39600.00000 0 7437846.249 9412562.516 -22500697.041 10 0 59219 40500.00000 0 6638495.687 12013710.455 -21493645.991 10 0 59219 41400.00000 0 6074364.194 14522391.957 -20068898.749 10 0 59219 42300.00000 0 5737402.764 16870300.428 -18254288.562 10 0 59219 43200.00000 0 5607419.818 18993455.435 -16085197.952 10 0 59219 44100.00000 0 5653123.581 20834693.175 -13603862.214 10 0 59219 45000.00000 0 5833641.160 22345883.135 -10858542.027 10 0 59219 45900.00000 0 6100448.801 23489779.633 -7902581.582 10 0 59219 46800.00000 0 6399630.819 24241432.296 -4793370.677 10 0 59219 47700.00000 0 6674371.131 24589097.954 -1591231.161 10 0 59219 48600.00000 0 6867571.803 24534617.299 1641750.698 10 0 59219 49500.00000 0 6924487.959 24093241.954 4842923.399 10 0 59219 50400.00000 0 6795267.979 23292920.401 7950277.847 10 0 59219 51300.00000 0 6437292.064 22173073.627 10903640.494 10 0 59219 52200.00000 0 5817210.826 20782912.335 13645829.464 10 0 59219 53100.00000 0 4912598.245 19179366.418 16123751.911 10 0 59219 54000.00000 0 3713149.344 17424713.106 18289422.317 10 0 59219 54900.00000 0 2221371.851 15584002.429 20100882.938 10 0 59219 55800.00000 0 452742.039 13722386.726 21523009.516 10 0 59219 56700.00000 0 -1564683.111 11902464.642 22528187.545 10 0 59219 57600.00000 0 -3791182.922 10181749.305 23096846.656 10 0 59219 58500.00000 0 -6176782.976 8610365.233 23217843.154 10 0 59219 59400.00000 0 -8663101.517 7229069.084 22888683.302 10 0 59219 60300.00000 0 -11185557.818 6067676.119 22115582.629 10 0 59219 61200.00000 0 -13675852.708 5143957.775 20913359.332 10 0 59219 62100.00000 0 -16064620.005 4463056.325 19305162.665 10 0 59219 63000.00000 0 -18284139.986 4017441.380 17322040.174 10 0 59219 63900.00000 0 -20271002.689 3787410.579 15002350.662 10 0 59219 64800.00000 0 -21968610.361 3742113.954 12391032.772 10 0 59219 65700.00000 0 -23329414.345 3841059.422 9538742.062 10 0 59219 66600.00000 0 -24316792.067 4036036.300 6500872.420 10 0 59219 67500.00000 0 -24906484.505 4273375.607 3336480.293 10 0 59219 68400.00000 0 -25087532.663 4496451.238 107132.591 10 0 59219 69300.00000 0 -24862672.494 4648315.256 -3124298.753 10 0 59219 70200.00000 0 -24248170.792 4674354.423 -6294871.247 10 0 59219 71100.00000 0 -23273108.342 4524853.760 -9342810.061 10 0 59219 72000.00000 0 -21978140.396 4157356.677 -12208724.381 10 0 59219 72900.00000 0 -20413786.975 3538719.791 -14836776.802 10 0 59219 73800.00000 0 -18638325.662 2646773.588 -17175781.695 10 0 59219 74700.00000 0 -16715376.525 1471517.131 -19180210.028 10 0 59219 75600.00000 0 -14711281.819 15794.986 -20811080.429 10 0 59219 76500.00000 0 -12692391.475 -1704573.195 -22036718.858 10 0 59219 77400.00000 0 -10722369.167 -3661216.531 -22833372.146 10 0 59219 78300.00000 0 -8859632.237 -5814172.811 -23185663.933 10 0 59219 79200.00000 0 -7155032.677 -8113344.359 -23086884.793 10 0 59219 80100.00000 0 -5649875.688 -10500388.869 -22539111.768 10 0 59219 81000.00000 0 -4374357.652 -12910966.076 -21553155.919 10 0 59219 81900.00000 0 -3346487.311 -15277246.454 -20148339.777 10 0 59219 82800.00000 0 -2571533.459 -17530577.172 -18352109.906 10 0 59219 83700.00000 0 -2042020.158 -19604194.323 -16199492.801 10 0 59219 84600.00000 0 -1738267.418 -21435868.696 -13732405.249 10 0 59219 85500.00000 0 -1629452.572 -22970375.222 -10998833.059 10 0 59220 0.00000 0 -1675145.749 -24161683.883 -8051894.495 10 0 59220 900.00000 0 -1827253.136 -24974781.329 -4948806.390 10 0 59220 1800.00000 0 -2032285.123 -25387048.967 -1749774.187 10 0 59220 2700.00000 0 -2233852.435 -25389139.571 1483173.844 10 0 59220 3600.00000 0 -2375284.924 -24985318.688 4687384.769 10 0 59220 4500.00000 0 -2402262.045 -24193256.254 7800788.847 10 0 59220 5400.00000 0 -2265344.306 -23043278.646 10763093.981 10 0 59220 6300.00000 0 -1922299.105 -21577112.804 13516944.276 10 0 59220 7200.00000 0 -1340123.212 -19846175.234 16009020.837 10 0 59220 8100.00000 0 -496676.865 -17909477.224 18191064.448 10 0 59220 9000.00000 0 618139.419 -15831233.227 20020801.282 10 0 59220 9900.00000 0 2001715.192 -13678271.389 21462754.602 10 0 59220 10800.00000 0 3638596.662 -11517353.059 22488927.680 10 0 59220 11700.00000 0 5500896.509 -9412511.721 23079345.393 10 0 59220 12600.00000 0 7549231.604 -7422520.933 23222444.339 10 0 59220 13500.00000 0 9734151.604 -5598595.520 22915304.032 10 0 59220 14400.00000 0 11998001.169 -3982420.763 22163714.268 10 0 59220 15300.00000 0 14277140.379 -2604591.078 20982076.604 10 0 59220 16200.00000 0 16504432.904 -1483522.911 19393140.731 10 0 59220 17100.00000 0 18611899.925 -624887.163 17427579.433 10 0 59220 18000.00000 0 20533430.195 -21585.154 15123408.886 10 0 59220 18900.00000 0 22207433.730 345730.574 12525264.042 10 0 59220 19800.00000 0 23579328.148 507612.103 9683541.802 10 0 59220 20700.00000 0 24603752.952 504292.281 6653427.722 10 0 59220 21600.00000 0 25246417.913 383745.409 3493824.568 10 0 59220 22500.00000 0 25485506.667 199414.713 266203.502 10 0 59220 23400.00000 0 25312575.090 7703.390 -2966599.265 10 0 59220 24300.00000 0 24732905.409 -134663.364 -6141616.035 10 0 59220 25200.00000 0 23765300.087 -173292.146 -9196986.226 10 0 59220 26100.00000 0 22441323.566 -58676.730 -12073174.355 10 0 59220 27000.00000 0 20804023.596 251455.031 -14714142.307 10 0 59220 27900.00000 0 18906186.205 790104.059 -17068451.741 10 0 59220 28800.00000 0 16808198.346 1579360.440 -19090274.022 10 0 59220 29700.00000 0 14575608.817 2629232.108 -20740287.326 10 0 59220 30600.00000 0 12276490.713 3936992.315 -21986443.171 10 0 59220 31500.00000 0 9978716.779 5487074.111 -22804587.433 10 0 59220 32400.00000 0 7747262.250 7251516.711 -23178924.229 10 0 59220 33300.00000 0 5641648.086 9190945.169 -23102314.329 10 0 59220 34200.00000 0 3713631.152 11256042.202 -22576403.097 10 0 59220 35100.00000 0 2005236.936 13389450.391 -21611576.451 10 0 59220 36000.00000 0 547215.598 15528025.025 -20226746.584 10 0 59220 36900.00000 0 -642015.900 17605343.215 -18448972.448 10 0 59220 37800.00000 0 -1556903.481 19554364.451 -16312923.147 10 0 59220 38700.00000 0 -2204737.632 21310131.589 -13860195.165 10 0 59220 39600.00000 0 -2605090.126 22812399.692 -11138497.243 10 0 59220 40500.00000 0 -2788731.695 24008083.367 -8200719.029 10 0 59220 41400.00000 0 -2796078.127 24853420.991 -5103901.779 10 0 59220 42300.00000 0 -2675231.808 25315766.057 -1908131.306 10 0 59220 43200.00000 0 -2479702.453 25374931.623 1324625.376 10 0 59220 44100.00000 0 -2265903.956 25024032.506 4531717.227 10 0 59220 45000.00000 0 -2090533.308 24269790.792 7651017.142 10 0 59220 45900.00000 0 -2007942.275 23132292.596 10622117.663 10 0 59220 46800.00000 0 -2067612.486 21644206.677 13387491.867 10 0 59220 47700.00000 0 -2311840.077 19849497.736 15893597.572 10 0 59220 48600.00000 0 -2773727.142 17801687.960 18091904.362 10 0 59220 49500.00000 0 -3475564.401 15561738.770 19939824.528 10 0 59220 50400.00000 0 -4427673.197 13195640.259 21401530.756 10 0 59220 51300.00000 0 -5627756.003 10771807.525 22448645.692 10 0 59220 52200.00000 0 -7060783.694 8358390.905 23060790.689 10 0 59220 53100.00000 0 -8699425.706 6020610.628 23225983.504 10 0 59220 54000.00000 0 -10505006.941 3818225.304 22940877.340 10 0 59220 54900.00000 0 -12428953.568 1803238.298 22210836.224 10 0 59220 55800.00000 0 -14414669.481 17936.525 21049844.530 10 0 59220 56700.00000 0 -16399767.211 -1506657.363 19480251.304 10 0 59220 57600.00000 0 -18318561.997 -2751855.198 17532352.943 10 0 59220 58500.00000 0 -20104726.176 -3711851.209 15243820.849 10 0 59220 59400.00000 0 -21693993.735 -4393724.572 12658983.651 10 0 59220 60300.00000 0 -23026802.085 -4816896.220 9827976.570 10 0 59220 61200.00000 0 -24050759.868 -5012062.461 6805773.499 10 0 59220 62100.00000 0 -24722836.328 -5019650.276 3651120.003 10 0 59220 63000.00000 0 -25011178.941 -4887859.646 425387.855 10 0 59220 63900.00000 0 -24896481.261 -4670376.200 -2808626.085 10 0 59220 64800.00000 0 -24372841.861 -4423851.916 -5987932.496 10 0 59220 65700.00000 0 -23448076.759 -4205261.882 -9050588.480 10 0 59220 66600.00000 0 -22143471.109 -4069250.654 -11936917.147 10 0 59220 67500.00000 0 -20492979.922 -4065582.429 -14590682.685 10 0 59220 68400.00000 0 -18541911.239 -4236804.780 -16960196.726 10 0 59220 69300.00000 0 -16345147.333 -4616226.473 -18999333.307 10 0 59220 70200.00000 0 -13964979.167 -5226296.290 -20668431.943 10 0 59220 71100.00000 0 -11468645.574 -6077452.432 -21935070.933 10 0 59220 72000.00000 0 -8925680.999 -7167491.741 -22774695.809 10 0 59220 72900.00000 0 -6405183.281 -8481485.725 -23171091.181 10 0 59220 73800.00000 0 -3973115.811 -9992247.029 -23116687.432 10 0 59220 74700.00000 0 -1689756.630 -11661326.604 -22612697.137 10 0 59220 75600.00000 0 392599.822 -13440499.467 -21669079.507 10 0 59220 76500.00000 0 2231593.568 -15273676.489 -20304334.437 10 0 59220 77400.00000 0 3796322.724 -17099161.752 -18545131.006 10 0 59220 78300.00000 0 5068378.310 -18852160.787 -16425778.409 10 0 59220 79200.00000 0 6042349.244 -20467434.617 -13987550.121 10 0 59220 80100.00000 0 6725778.752 -21881988.539 -11277874.978 10 0 59220 81000.00000 0 7138576.415 -23037683.371 -8349411.162 10 0 59220 81900.00000 0 7311912.760 -23883660.241 -5259021.286 10 0 59220 82800.00000 0 7286644.754 -24378477.880 -2066668.683 10 0 59220 83700.00000 0 7111340.039 -24491873.576 1165743.717 10 0 59220 84600.00000 0 6839984.283 -24206074.662 4375569.475 10 0 59220 85500.00000 0 6529468.930 -23516606.284 7500626.669 99